[[{"header":{"parameterUnit":"m.s-1","parameterCategory":1,"la1":30.2991,"la2":30.254,"lo1":-89.0895,"lo2":-89.0444,"dy":0.0017,"dx":0.0017,"nx":28,"ny":28,"refTime":"2024-07-28T21:00:00:Z","depth":0,"parameterNumber":2,"parameterNumberName":"U-component_of_WINDS"},"data":[0,0,0,0,0,0,0,0,0,0,0,0,0,0,0,0,0,0,0,0,0,0,0,0,0,0,0,0,0,0,0,0,0,0,0,0,0,0,0,0,0,0,0,0,0,0,0,0,0,0,0,0,0,0,0,0,0,0,2.9941,2.9943,0,3.0112,3.0113,3.0115,3.009,3.0087,3.0084,3.0081,3.0257,3.0265,3.0272,0,0,0,0,0,0,0,0,0,0,0,0,0,2.9594,2.96,2.9941,2.9943,2.9946,3.0111,3.0114,3.0116,3.009,3.0087,3.0083,3.008,3.0255,3.0264,3.0273,0,0,0,0,0,0,0,0,0,0,0,0,0,2.9753,2.9603,2.9941,2.9953,2.9955,3.0111,3.0114,3.0116,3.0091,3.0087,3.0082,3.0078,3.0252,3.0263,3.0274,3.0429,0,0,3.0308,3.0312,0,0,0,0,0,0,0,0,2.9744,2.9765,2.9949,2.9952,2.9955,3.0075,3.0056,3.0221,3.0092,3.004,3.0081,3.0076,3.02,3.0215,3.0257,3.0437,3.0445,3.0309,3.0315,3.032,3.0323,0,0,0,0,0,0,0,2.9733,2.9758,3.0009,2.9951,2.9956,2.9949,2.9967,3.0087,3.0142,3.0044,3.0042,3.0063,3.0201,3.0246,3.0261,3.0447,3.0308,3.0318,3.0325,3.0329,3.0761,3.0765,0,0,0,0,0,0,2.9718,2.9749,3.0003,3.0014,2.9837,2.9959,2.9979,3.0041,3.0141,3.0152,3.0066,3.0061,3.0229,3.0248,3.0267,3.0454,3.032,3.033,3.0337,3.0756,3.0762,3.0767,0,0,0,0,0,0,2.9711,2.9741,2.9996,2.9881,2.9913,2.997,3.004,3.0047,3.0092,3.0158,3.0168,3.0102,3.0227,3.0251,3.0388,3.046,3.0335,3.0345,3.075,3.0758,3.0765,3.083,0,0,0,0,0,0,2.9701,2.9739,2.9799,2.9883,2.9919,3.0115,3.0044,3.0053,3.011,3.0105,3.0194,3.0205,3.0225,3.0372,3.0399,3.0473,3.0354,3.0744,3.0754,3.0762,3.0822,3.0839,3.0853,0,0,0,0,0,2.9689,2.9811,2.9802,2.9833,2.9995,3.0119,3.014,3.0161,3.0116,3.0177,3.0219,3.0202,3.0447,3.0386,3.0417,3.0495,3.074,3.0751,3.0762,3.0815,3.0835,3.0853,0,0,0,0,0,0,2.9736,2.9823,2.9813,2.9966,3.0035,3.0115,3.0192,3.0183,3.0267,3.0258,3.0281,3.0301,3.0439,3.0481,3.0411,3.0649,3.0587,3.0605,3.0617,3.0637,3.0653,3.0641,3.0363,0,0,0,0,0,2.9764,2.9857,2.9928,3.0056,3.0091,3.0136,3.0191,3.02,3.0273,3.0302,3.0355,3.0426,3.0519,3.058,3.067,3.0827,3.0845,3.0895,3.0911,3.0923,3.0939,3.1023,3.1046,3.0803,3.0803,3.0802,0,0,2.9823,2.9882,2.994,3.0067,3.0122,3.0218,3.0161,3.0265,3.0337,3.0319,3.0451,3.0491,3.0572,3.072,3.0787,3.0758,3.101,3.0937,3.0947,3.0956,3.1037,3.106,3.108,3.081,3.0809,3.0808,0,0,2.998,3.0034,3.0147,3.0202,3.0285,3.0313,3.0339,3.042,3.0446,3.0578,3.0566,3.0651,3.0811,3.0869,3.0919,3.1095,3.1082,3.1123,3.1206,3.1288,3.1307,3.1324,3.1386,3.1408,3.1138,3.1138,3.1138,0,3.0044,3.0188,3.0206,3.0311,3.0367,3.0353,3.0466,3.0519,3.0627,3.0666,3.0632,3.0831,3.0885,3.1044,3.1087,3.1128,3.1159,3.1114,3.1303,3.132,3.1336,3.1396,3.1419,3.1142,3.1142,3.1141,3.1141,0,3.0262,3.0362,3.0442,3.0546,3.061,3.0719,3.0753,3.0816,3.0819,3.085,3.0984,3.1048,3.1149,3.1187,3.1192,3.1347,3.1327,3.1297,3.1236,3.1364,3.142,3.1443,3.1149,3.1147,3.1146,3.1145,0,0,3.0457,3.0566,3.0595,3.0641,3.073,3.0807,3.0914,3.1012,3.1066,3.114,3.123,3.1364,3.1337,3.1394,3.1404,3.1476,3.161,3.1438,3.144,3.1468,3.1784,3.1806,3.1832,3.1601,3.1605,3.1609,3.1777,0,3.0623,3.0812,3.0829,3.0999,3.1091,3.1077,3.1171,3.1235,3.1266,3.1348,3.1383,3.1477,3.1434,3.1468,3.1539,3.1579,3.1674,3.1567,3.1686,3.169,3.1667,3.1862,3.1887,3.2042,3.1799,3.1803,3.1806,0,3.0843,3.0922,3.11,3.1174,3.1213,3.1297,3.1386,3.1465,3.1537,3.1554,3.1616,3.1616,3.1726,3.1659,3.181,3.1737,3.1786,3.1812,3.1819,3.1832,3.1756,3.1881,3.2093,3.2116,3.1841,3.1838,3.1835,0,3.0967,3.1118,3.1244,3.1283,3.1372,3.1431,3.1471,3.1538,3.1595,3.1673,3.171,3.18,3.185,3.1919,3.1943,3.1892,3.2093,3.2028,3.2111,3.211,3.2155,3.2152,3.2379,3.2185,3.2185,3.2184,3.2184,0,3.1151,3.1261,3.13,3.1378,3.15,3.1518,3.1638,3.1675,3.1734,3.1818,3.1811,3.189,3.1917,3.2,3.2019,3.2141,3.2164,3.2181,3.2185,3.2182,3.218,3.2216,3.2206,3.2191,3.2189,3.2188,3.2187,0,3.1312,3.1342,3.1479,3.1551,3.1571,3.1658,3.1719,3.1794,3.1822,3.1929,3.1954,3.2,3.2097,3.2127,3.2245,3.2258,3.24,3.2394,3.2376,3.2377,3.2457,3.2449,3.2716,3.2751,3.2533,3.2536,3.2537,0,3.1428,3.1512,3.1592,3.1647,3.1689,3.1779,3.1836,3.1855,3.1915,3.2001,3.2065,3.2161,3.2239,3.2395,3.2438,3.2528,3.2524,3.2611,3.2538,3.2532,3.2526,3.2521,3.2529,3.2626,3.2628,3.263,3.2631,0,3.1631,3.1641,3.1724,3.1811,3.1879,3.1949,3.2016,3.2062,3.2091,3.2158,3.2257,3.2317,3.2436,3.2531,3.2621,3.2662,3.2652,3.2653,3.2677,3.2676,3.2662,3.2671,3.2414,3.2648,3.2646,3.2645,3.2644,3.2643,3.1774,3.1847,3.1914,3.2005,3.2057,3.212,3.2192,3.2229,3.2311,3.2409,3.2415,3.2522,3.2589,3.2709,3.2754,3.2837,3.2812,3.2847,3.2856,3.2864,3.2871,3.2647,3.2853,3.2853,3.2853,3.2852,3.2852,0,3.1977,3.2018,3.2102,3.2195,3.2266,3.2248,3.2321,3.2382,3.2476,3.2539,3.2614,3.2727,3.2818,3.2867,3.2958,3.3015,3.3013,3.3039,3.3035,3.3045,3.2888,3.2858,3.3039,3.3039,3.3039,3.3039,3.3039,3.3039,3.2091,3.2213,3.2231,3.2378,3.2419,3.2523,3.2565,3.2622,3.2672,3.2798,3.2873,3.2904,3.2961,3.3055,3.3138,3.315,3.3184,3.3213,3.3222,3.3075,3.3056,3.3038,3.301,3.322,3.322,3.3372,3.3373,3.3374]},{"header":{"parameterUnit":"m.s-1","parameterCategory":1,"la1":30.2991,"la2":30.254,"lo1":-89.0895,"lo2":-89.0444,"dy":0.0017,"dx":0.0017,"nx":28,"ny":28,"refTime":"2024-07-28T21:00:00:Z","depth":0,"parameterNumber":3,"parameterNumberName":"V-component_of_WINDS"},"data":[0,0,0,0,0,0,0,0,0,0,0,0,0,0,0,0,0,0,0,0,0,0,0,0,0,0,0,0,0,0,0,0,0,0,0,0,0,0,0,0,0,0,0,0,0,0,0,0,0,0,0,0,0,0,0,0,0,0,4.8841,4.8842,0,4.899,4.8991,4.8993,4.8972,4.8969,4.8967,4.8965,4.911,4.9116,4.9122,0,0,0,0,0,0,0,0,0,0,0,0,0,4.8529,4.8535,4.884,4.8842,4.8844,4.8989,4.8991,4.8993,4.8972,4.8969,4.8966,4.8963,4.9108,4.9115,4.9123,0,0,0,0,0,0,0,0,0,0,0,0,0,4.867,4.8537,4.884,4.8851,4.8854,4.8989,4.8991,4.8994,4.8973,4.8969,4.8966,4.8962,4.9106,4.9115,4.9124,4.9255,0,0,4.9152,4.9156,0,0,0,0,0,0,0,0,4.8662,4.8681,4.8848,4.8851,4.8854,4.8959,4.8935,4.9081,4.8974,4.8928,4.8965,4.896,4.9062,4.9075,4.9111,4.9262,4.9268,4.9153,4.9158,4.9162,4.9165,0,0,0,0,0,0,0,4.8652,4.8675,4.8899,4.885,4.8854,4.8846,4.8862,4.8963,4.9013,4.8931,4.893,4.8948,4.9063,4.9102,4.9114,4.927,4.9153,4.9161,4.9167,4.917,4.9533,4.9537,0,0,0,0,0,0,4.8641,4.8667,4.8894,4.8904,4.8747,4.8855,4.8873,4.8929,4.9012,4.9022,4.8951,4.8947,4.9088,4.9103,4.9119,4.9277,4.9162,4.9171,4.9176,4.9529,4.9534,4.9539,0,0,0,0,0,0,4.8634,4.8661,4.8888,4.8785,4.8813,4.8864,4.8927,4.8933,4.8972,4.9028,4.9036,4.8982,4.9085,4.9106,4.9221,4.9282,4.9175,4.9184,4.9525,4.9531,4.9537,4.9594,0,0,0,0,0,0,4.8625,4.8659,4.8711,4.8787,4.8819,4.8991,4.8931,4.8939,4.8989,4.8985,4.9059,4.9067,4.9084,4.9208,4.923,4.9292,4.9191,4.9519,4.9527,4.9535,4.9587,4.9602,4.9614,0,0,0,0,0,4.8614,4.8721,4.8714,4.8742,4.8886,4.8995,4.9013,4.9032,4.8994,4.9046,4.9081,4.9065,4.9271,4.922,4.9245,4.9311,4.9516,4.9525,4.9534,4.9581,4.9599,4.9614,0,0,0,0,0,0,4.8649,4.8731,4.8725,4.8859,4.8921,4.8991,4.9057,4.9051,4.9122,4.9115,4.9133,4.915,4.9266,4.93,4.9241,4.9441,4.9388,4.9403,4.9415,4.9432,4.9445,4.9434,4.9199,0,0,0,0,0,4.8673,4.8757,4.8823,4.8935,4.8966,4.9006,4.9054,4.9064,4.9127,4.9152,4.9196,4.9256,4.9333,4.9385,4.946,4.9592,4.9606,4.9649,4.9662,4.9673,4.9686,4.9756,4.9775,4.9569,4.9569,4.9569,0,0,4.8722,4.8777,4.8829,4.8943,4.8992,4.9076,4.9028,4.9119,4.9181,4.9165,4.9277,4.9311,4.9379,4.9503,4.9559,4.9534,4.9746,4.9685,4.9693,4.97,4.9767,4.9787,4.9804,4.9575,4.9574,4.9573,0,0,4.8855,4.8906,4.9005,4.9054,4.9129,4.9155,4.9178,4.925,4.9273,4.9386,4.9376,4.9447,4.9582,4.963,4.9672,4.9821,4.9808,4.9845,4.9914,4.9983,4.9999,5.0013,5.0065,5.0083,4.9857,4.9857,4.9857,0,4.8906,4.9035,4.9055,4.9148,4.9197,4.9189,4.9287,4.9333,4.9427,4.946,4.9431,4.9599,4.9644,4.9778,4.9815,4.985,4.9875,4.9836,4.9995,5.001,5.0024,5.0073,5.0093,4.9861,4.986,4.986,4.986,0,4.9094,4.9183,4.9253,4.9346,4.9403,4.9498,4.953,4.9585,4.9588,4.9616,4.973,4.9783,4.9868,4.9901,4.9905,5.0035,5.0017,4.9992,4.9939,5.0047,5.0093,5.0113,4.9866,4.9865,4.9864,4.9863,0,0,4.9254,4.9357,4.9382,4.9424,4.9505,4.9573,4.9665,4.975,4.9796,4.9861,4.9937,5.0051,5.0027,5.0075,5.0084,5.0144,5.0256,5.0111,5.0113,5.0135,5.0401,5.0419,5.0441,5.0248,5.0252,5.0255,5.0394,0,4.9394,4.9561,4.9581,4.9728,4.9809,4.9801,4.9881,4.9938,4.9966,5.0036,5.0066,5.0146,5.011,5.0138,5.0197,5.023,5.031,5.022,5.0317,5.032,5.03,5.0465,5.0485,5.0615,5.0413,5.0416,5.0418,0,4.958,4.9652,4.9808,4.9876,4.9911,4.9983,5.0062,5.013,5.0193,5.0208,5.0261,5.0262,5.0354,5.0298,5.0424,5.0363,5.0403,5.0425,5.043,5.0439,5.0376,5.0478,5.0657,5.0676,5.0447,5.0445,5.0443,0,4.9679,4.9815,4.9926,4.9961,5.0044,5.0095,5.0131,5.0191,5.024,5.0307,5.0339,5.0415,5.0457,5.0515,5.0535,5.0492,5.0659,5.0605,5.0673,5.0672,5.0708,5.0705,5.0895,5.0735,5.0735,5.0735,5.0734,0,4.9833,4.9929,4.9971,5.0039,5.0145,5.0165,5.0268,5.0302,5.0354,5.0426,5.0423,5.049,5.0513,5.0583,5.0598,5.0699,5.0718,5.0731,5.0734,5.0732,5.073,5.0758,5.0749,5.074,5.0739,5.0738,5.0737,0,4.9963,4.9996,5.0115,5.0184,5.0203,5.0278,5.0335,5.0399,5.0426,5.0517,5.0539,5.058,5.0662,5.0688,5.0786,5.0796,5.0914,5.0909,5.0893,5.0894,5.096,5.0953,5.1173,5.1202,5.1024,5.1026,5.1027,0,5.0059,5.0132,5.0209,5.0258,5.0297,5.0376,5.0426,5.0448,5.05,5.0576,5.063,5.0712,5.0779,5.0909,5.0946,5.102,5.1017,5.1089,5.1028,5.1022,5.1016,5.1011,5.1018,5.11,5.1102,5.1103,5.1105,0,5.0225,5.0237,5.0312,5.0391,5.0452,5.0515,5.0576,5.0616,5.0646,5.0704,5.0789,5.0841,5.0941,5.1021,5.1097,5.1131,5.1122,5.1124,5.1143,5.1141,5.1128,5.1135,5.0924,5.1118,5.1117,5.1116,5.1115,5.1115,5.034,5.0404,5.0468,5.055,5.0598,5.0655,5.0718,5.0753,5.0825,5.0911,5.0918,5.1009,5.1067,5.1168,5.1206,5.1275,5.1254,5.1282,5.129,5.1296,5.1301,5.1118,5.1289,5.1288,5.1288,5.1288,5.1288,0,5.0505,5.0545,5.0621,5.0707,5.0771,5.0759,5.0825,5.0879,5.096,5.1016,5.1082,5.1178,5.1255,5.1298,5.1374,5.1421,5.1419,5.144,5.1436,5.1444,5.1316,5.1291,5.1441,5.1441,5.1441,5.1441,5.1441,5.144,5.0598,5.0706,5.0725,5.0856,5.0895,5.0986,5.1024,5.1075,5.112,5.1229,5.1294,5.1322,5.1371,5.1451,5.152,5.153,5.1558,5.1582,5.1589,5.1469,5.1453,5.1438,5.1415,5.1588,5.1588,5.1711,5.1712,5.1713]}]]